Joplin, MO

9:48 PM CST on November 17, 2019 (GMT -0600)
Joplin Regional

Weather History for KJLN - September, 2019

Change the Weather History Date:

Saturday, September 28, 2019

  Actual Average Record
Temperature  
Mean Temperature 78 °F 66 °F  
Max Temperature 87 °F 77 °F 104 °F (1953)
Min Temperature 69 °F 54 °F 37 °F (1967)
Degree Days  
Heating Degree Days 0 3  
Month to date heating degree days 0 31  
Since 1 July heating degree days 0 32  
Cooling Degree Days 13 4  
Month to date cooling degree days 377 207  
Year to date cooling degree days 1628 1634  
Growing Degree Days 28 (Base 50)    
Moisture  
Dew Point 69 °F    
Average Humidity 77    
Maximum Humidity 90    
Minimum Humidity 65    
Precipitation  
Precipitation 0.01 in 0.16 in 1.73 in (1975)
Month to date precipitation 4.45 4.64  
Year to date precipitation 53.34 35.61  
Sea Level Pressure  
Sea Level Pressure 29.89 in    
Wind  
Wind Speed 8 mph ()    
Max Wind Speed 20 mph    
Max Gust Speed 28 mph    
Visibility 10.0 miles    
Events      
T = Trace of Precipitation, MM = Missing Value Source: Averaged Metar Reports

Daily Weather History Graph

Daily Weather History Graph

Search for Another Location

Airport or City:

Astronomy

Sep. 28, 2019 Rise Set
Actual Time 7:10 AM CDT 7:06 PM CDT
Civil Twilight 6:44 AM CDT 7:31 PM CDT
Nautical Twilight 6:14 AM CDT 8:02 PM CDT
Astronomical Twilight 5:44 AM CDT 8:32 PM CDT
Moon 6:49 AM CDT (9/28) 7:31 PM CDT (9/28)
Length of Visible Light 12h 47m
Length of Day
11h 55m
Waning Crescent, 0% of the Moon is Illuminated
Sep 28
Waning Crescent
Sep 28
New
Oct 5
First Quarter
Oct 13
Full
Oct 21
Last Quarter

Hourly Weather History & Observations

Time (CDT) Temp. Heat Index Dew Point Humidity Pressure Visibility Wind Dir Wind Speed Gust Speed Precip Events Conditions
12:53 AM 75.9 °F - 66.0 °F 71% 29.75 in 10.0 mi South 16.1 mph 25.3 mph N/A   Clear
1:53 AM 75.0 °F - 64.9 °F 71% 29.76 in 10.0 mi South 16.1 mph - N/A   Clear
2:53 AM 75.0 °F - 64.9 °F 71% 29.79 in 10.0 mi SSW 4.6 mph - N/A   Clear
3:53 AM 72.0 °F - 64.9 °F 78% 29.81 in 10.0 mi SSE 4.6 mph - N/A   Clear
4:53 AM 71.1 °F - 66.0 °F 84% 29.82 in 10.0 mi East 4.6 mph - N/A   Clear
5:53 AM 70.0 °F - 66.0 °F 87% 29.84 in 10.0 mi ESE 6.9 mph - N/A   Clear
6:53 AM 69.1 °F - 66.0 °F 90% 29.89 in 10.0 mi East 3.5 mph - N/A   Scattered Clouds
7:14 AM 70.0 °F - 66.0 °F 87% 29.93 in 10.0 mi East 4.6 mph - N/A   Overcast
7:53 AM 70.0 °F - 66.0 °F 87% 29.92 in 10.0 mi East 6.9 mph - N/A   Overcast
8:53 AM 73.0 °F - 68.0 °F 84% 29.93 in 10.0 mi ESE 5.8 mph - N/A   Overcast
9:53 AM 75.0 °F - 69.1 °F 82% 29.94 in 10.0 mi SE 4.6 mph - N/A   Overcast
10:53 AM 79.0 °F - 71.1 °F 77% 29.94 in 10.0 mi South 5.8 mph - N/A   Overcast
11:53 AM 82.0 °F 86.7 °F 72.0 °F 71% 29.94 in 10.0 mi South 9.2 mph 20.7 mph N/A   Mostly Cloudy
12:53 PM 82.0 °F 86.7 °F 72.0 °F 71% 29.94 in 10.0 mi South 12.7 mph - N/A   Mostly Cloudy
1:53 PM 81.0 °F 85.8 °F 73.0 °F 77% 29.93 in 10.0 mi South 12.7 mph - 0.01 in   Mostly Cloudy
2:53 PM 84.0 °F 89.6 °F 72.0 °F 67% 29.90 in 10.0 mi South 11.5 mph - N/A   Scattered Clouds
3:53 PM 84.9 °F 90.7 °F 72.0 °F 65% 29.87 in 10.0 mi South 16.1 mph - N/A   Mostly Cloudy
4:53 PM 84.0 °F 89.0 °F 71.1 °F 65% 29.88 in 10.0 mi South 15.0 mph - N/A   Partly Cloudy
5:53 PM 82.9 °F 87.5 °F 71.1 °F 67% 29.88 in 10.0 mi South 13.8 mph - N/A   Clear
6:53 PM 81.0 °F 84.9 °F 71.1 °F 72% 29.89 in 10.0 mi SSE 10.4 mph - N/A   Clear
7:53 PM 80.1 °F 83.2 °F 70.0 °F 71% 29.90 in 10.0 mi SSE 8.1 mph - N/A   Clear
8:53 PM 78.1 °F - 70.0 °F 76% 29.93 in 10.0 mi SSE 6.9 mph - N/A   Clear
9:53 PM 75.9 °F - 71.1 °F 85% 29.96 in 10.0 mi ESE 6.9 mph - N/A   Partly Cloudy
10:53 PM 77.0 °F - 71.1 °F 82% 29.95 in 10.0 mi SE 10.4 mph - N/A   Clear
11:53 PM 75.9 °F - 71.1 °F 85% 29.96 in 10.0 mi SSE 9.2 mph - N/A   Mostly Cloudy